| time (UTC) | temp C | wind direction | speed KPH | gust KPH | rain 1hr cm | rain 24hr cm | rain mn cm | humidity % | barometer mb |
| 20260510204542 | 25 | 238 | 3.2 | 3.2 | 0.00 | 0.00 | 0.00 | 46 | 1013.4 |
| 20260510204039 | 26 | 273 | 4.8 | 9.7 | 0.00 | 0.00 | 0.00 | 42 | 1013.6 |
| 20260510203536 | 26 | 244 | 4.8 | 8.0 | 0.00 | 0.00 | 0.00 | 41 | 1013.6 |
| 20260510203033 | 25 | 336 | 0.0 | 4.8 | 0.00 | 0.00 | 0.00 | 47 | 1013.5 |
| 20260510202531 | 25 | 247 | 3.2 | 3.2 | 0.00 | 0.00 | 0.00 | 49 | 1013.6 |
| 20260510202028 | 24 | 226 | 0.0 | 3.2 | 0.00 | 0.00 | 0.00 | 49 | 1013.5 |
| 20260510201526 | 24 | 205 | 0.0 | 4.8 | 0.00 | 0.00 | 0.00 | 50 | 1013.4 |
| 20260510201022 | 23 | 216 | 0.0 | 3.2 | 0.00 | 0.00 | 0.00 | 49 | 1013.4 |
| 20260510200518 | 23 | 235 | 0.0 | 4.8 | 0.00 | 0.00 | 0.00 | 50 | 1013.7 |
| 20260510200016 | 23 | 237 | 1.6 | 4.8 | 0.00 | 0.00 | 0.00 | 50 | 1013.8 |
| 20260510195513 | 23 | 266 | 4.8 | 9.7 | 0.00 | 0.00 | 0.00 | 49 | 1014.0 |
| 20260510195008 | 23 | 269 | 3.2 | 8.0 | 0.00 | 0.00 | 0.00 | 50 | 1014.0 |
| 20260510194504 | 23 | 286 | 4.8 | 4.8 | 0.00 | 0.00 | 0.00 | 53 | 1013.9 |
| 20260510194001 | 24 | 232 | 6.4 | 6.4 | 0.00 | 0.00 | 0.00 | 50 | 1014.1 |
| 20260510193455 | 24 | 234 | 4.8 | 4.8 | 0.00 | 0.00 | 0.00 | 48 | 1014.0 |
| 20260510192951 | 25 | 249 | 6.4 | 8.0 | 0.00 | 0.00 | 0.00 | 46 | 1013.9 |
| 20260510192446 | 25 | 264 | 4.8 | 6.4 | 0.00 | 0.00 | 0.00 | 46 | 1014.0 |
| 20260510191942 | 25 | 228 | 3.2 | 8.0 | 0.00 | 0.00 | 0.00 | 47 | 1014.0 |
| 20260510191438 | 25 | 185 | 1.6 | 3.2 | 0.00 | 0.00 | 0.00 | 49 | 1014.1 |
| 20260510190936 | 25 | 268 | 6.4 | 8.0 | 0.00 | 0.00 | 0.00 | 45 | 1014.0 |
| 20260510190433 | 25 | 240 | 0.0 | 4.8 | 0.00 | 0.00 | 0.00 | 46 | 1014.0 |
| 20260510185929 | 25 | 194 | 3.2 | 6.4 | 0.00 | 0.00 | 0.00 | 45 | 1013.9 |
| 20260510185427 | 25 | 206 | 4.8 | 6.4 | 0.00 | 0.00 | 0.00 | 45 | 1013.9 |
| 20260510184924 | 25 | 286 | 1.6 | 8.0 | 0.00 | 0.00 | 0.00 | 44 | 1014.1 |
| 20260510184421 | 25 | 232 | 1.6 | 4.8 | 0.00 | 0.00 | 0.00 | 45 | 1014.0 |
| 20260510183920 | 25 | 233 | 4.8 | 6.4 | 0.00 | 0.00 | 0.00 | 44 | 1014.0 |
| 20260510183418 | 25 | 214 | 3.2 | 11.3 | 0.00 | 0.00 | 0.00 | 44 | 1014.0 |
| 20260510182913 | 25 | 203 | 3.2 | 4.8 | 0.00 | 0.00 | 0.00 | 45 | 1013.8 |
| 20260510182409 | 25 | 247 | 4.8 | 8.0 | 0.00 | 0.00 | 0.00 | 43 | 1013.9 |
| 20260510181905 | 25 | 267 | 6.4 | 8.0 | 0.00 | 0.00 | 0.00 | 42 | 1014.1 |
| 20260510181403 | 26 | 232 | 4.8 | 9.7 | 0.00 | 0.00 | 0.00 | 41 | 1014.0 |
| 20260510180859 | 26 | 259 | 4.8 | 9.7 | 0.00 | 0.00 | 0.00 | 41 | 1014.0 |
| 20260510180356 | 26 | 287 | 6.4 | 9.7 | 0.00 | 0.00 | 0.00 | 41 | 1013.9 |
| 20260510175853 | 26 | 271 | 6.4 | 11.3 | 0.00 | 0.00 | 0.00 | 39 | 1014.1 |
| 20260510175349 | 26 | 161 | 3.2 | 6.4 | 0.00 | 0.00 | 0.00 | 41 | 1014.0 |
| 20260510174845 | 26 | 253 | 6.4 | 11.3 | 0.00 | 0.00 | 0.00 | 41 | 1014.0 |
| 20260510174343 | 25 | 250 | 4.8 | 11.3 | 0.00 | 0.00 | 0.00 | 42 | 1013.9 |
| 20260510173839 | 25 | 223 | 4.8 | 12.9 | 0.00 | 0.00 | 0.00 | 42 | 1014.2 |
| 20260510173335 | 25 | 259 | 4.8 | 8.0 | 0.00 | 0.00 | 0.00 | 43 | 1014.0 |
| 20260510172831 | 25 | 233 | 3.2 | 4.8 | 0.00 | 0.00 | 0.00 | 45 | 1014.1 |
| 20260510172327 | 25 | 249 | 3.2 | 8.0 | 0.00 | 0.00 | 0.00 | 45 | 1014.1 |
| 20260510171823 | 25 | 245 | 6.4 | 6.4 | 0.00 | 0.00 | 0.00 | 44 | 1014.1 |
| 20260510171321 | 25 | 220 | 3.2 | 4.8 | 0.00 | 0.00 | 0.00 | 43 | 1014.2 |
| 20260510170818 | 25 | 234 | 8.0 | 8.0 | 0.00 | 0.00 | 0.00 | 44 | 1014.0 |
| 20260510170314 | 24 | 262 | 3.2 | 6.4 | 0.00 | 0.00 | 0.00 | 45 | 1014.4 |
| 20260510165809 | 24 | 242 | 6.4 | 11.3 | 0.00 | 0.00 | 0.00 | 44 | 1014.4 |
| 20260510165307 | 24 | 200 | 1.6 | 4.8 | 0.00 | 0.00 | 0.00 | 46 | 1014.3 |
| 20260510164803 | 24 | 191 | 3.2 | 9.7 | 0.00 | 0.00 | 0.00 | 48 | 1014.4 |
| 20260510164300 | 24 | 216 | 3.2 | 4.8 | 0.00 | 0.00 | 0.00 | 48 | 1014.3 |
| 20260510163755 | 24 | 271 | 9.7 | 11.3 | 0.00 | 0.00 | 0.00 | 46 | 1014.4 |
| 20260510163251 | 24 | 275 | 1.6 | 4.8 | 0.00 | 0.00 | 0.00 | 51 | 1014.3 |
| 20260510162750 | 23 | 95 | 3.2 | 6.4 | 0.00 | 0.00 | 0.00 | 48 | 1014.3 |
| 20260510162248 | 23 | 277 | 6.4 | 8.0 | 0.00 | 0.00 | 0.00 | 50 | 1014.4 |
| 20260510161744 | 23 | 246 | 0.0 | 4.8 | 0.00 | 0.00 | 0.00 | 49 | 1014.2 |
| 20260510161240 | 23 | 27 | 3.2 | 4.8 | 0.00 | 0.00 | 0.00 | 49 | 1014.2 |
| 20260510160737 | 23 | 211 | 1.6 | 4.8 | 0.00 | 0.00 | 0.00 | 50 | 1014.2 |
| 20260510160233 | 23 | 196 | 3.2 | 4.8 | 0.00 | 0.00 | 0.00 | 52 | 1014.3 |
| 20260510155729 | 23 | 266 | 0.0 | 4.8 | 0.00 | 0.00 | 0.00 | 50 | 1014.5 |
| 20260510155225 | 23 | 173 | 1.6 | 3.2 | 0.00 | 0.00 | 0.00 | 54 | 1014.5 |
| 20260510154721 | 23 | 304 | 3.2 | 6.4 | 0.00 | 0.00 | 0.00 | 51 | 1014.4 |
| 20260510154217 | 22 | 267 | 1.6 | 4.8 | 0.00 | 0.00 | 0.00 | 54 | 1014.6 |
| 20260510153712 | 22 | 296 | 3.2 | 8.0 | 0.00 | 0.00 | 0.00 | 54 | 1014.7 |
| 20260510153208 | 22 | 291 | 4.8 | 6.4 | 0.00 | 0.00 | 0.00 | 54 | 1014.6 |
| 20260510152705 | 22 | 252 | 1.6 | 3.2 | 0.00 | 0.00 | 0.00 | 58 | 1014.6 |
| 20260510152201 | 22 | 0 | 1.6 | 4.8 | 0.00 | 0.00 | 0.00 | 57 | 1014.5 |
| 20260510151658 | 21 | 319 | 3.2 | 8.0 | 0.00 | 0.00 | 0.00 | 60 | 1014.7 |
| 20260510151156 | 22 | 301 | 4.8 | 4.8 | 0.00 | 0.00 | 0.00 | 59 | 1014.7 |
| 20260510150652 | 21 | 233 | 0.0 | 4.8 | 0.00 | 0.00 | 0.00 | 60 | 1014.7 |
| 20260510150147 | 21 | 282 | 1.6 | 3.2 | 0.00 | 0.00 | 0.00 | 61 | 1014.7 |
| 20260510145644 | 21 | 199 | 0.0 | 3.2 | 0.00 | 0.00 | 0.00 | 62 | 1014.7 |
| 20260510145140 | 21 | 240 | 1.6 | 6.4 | 0.00 | 0.00 | 0.00 | 61 | 1014.8 |
| 20260510144636 | 21 | 272 | 6.4 | 6.4 | 0.00 | 0.00 | 0.00 | 60 | 1014.7 |
| 20260510144133 | 21 | 258 | 1.6 | 3.2 | 0.00 | 0.00 | 0.00 | 62 | 1014.7 |
| 20260510143628 | 20 | 233 | 1.6 | 4.8 | 0.00 | 0.00 | 0.00 | 66 | 1014.6 |
| 20260510143125 | 20 | 299 | 0.0 | 4.8 | 0.00 | 0.00 | 0.00 | 67 | 1014.7 |
| 20260510142621 | 20 | 304 | 0.0 | 3.2 | 0.00 | 0.00 | 0.00 | 66 | 1014.6 |
| 20260510142118 | 20 | 278 | 0.0 | 4.8 | 0.00 | 0.00 | 0.00 | 68 | 1014.6 |
| 20260510141615 | 20 | 219 | 1.6 | 4.8 | 0.00 | 0.00 | 0.00 | 69 | 1014.6 |
| 20260510141113 | 19 | 339 | 1.6 | 1.6 | 0.00 | 0.00 | 0.00 | 70 | 1014.7 |
| 20260510140609 | 18 | 264 | 0.0 | 3.2 | 0.00 | 0.00 | 0.00 | 69 | 1014.8 |
| 20260510140108 | 18 | 329 | 0.0 | 3.2 | 0.00 | 0.00 | 0.00 | 70 | 1014.7 |
| 20260510135604 | 18 | 281 | 3.2 | 3.2 | 0.00 | 0.00 | 0.00 | 71 | 1014.6 |
| 20260510135101 | 18 | 306 | 0.0 | 3.2 | 0.00 | 0.00 | 0.00 | 71 | 1014.7 |
| 20260510134558 | 18 | 231 | 0.0 | 3.2 | 0.00 | 0.00 | 0.00 | 71 | 1014.7 |
| 20260510134054 | 17 | 121 | 3.2 | 4.8 | 0.00 | 0.00 | 0.00 | 75 | 1014.6 |
| 20260510133551 | 18 | 288 | 3.2 | 4.8 | 0.00 | 0.00 | 0.00 | 73 | 1014.8 |
| 20260510133046 | 17 | 124 | 0.0 | 4.8 | 0.00 | 0.00 | 0.00 | 75 | 1014.6 |
| 20260510132543 | 16 | 275 | 0.0 | 4.8 | 0.00 | 0.00 | 0.00 | 78 | 1014.6 |
| 20260510132040 | 16 | 3 | 3.2 | 4.8 | 0.00 | 0.00 | 0.00 | 76 | 1014.7 |
| 20260510131538 | 16 | 54 | 0.0 | 3.2 | 0.00 | 0.00 | 0.00 | 80 | 1015.1 |
| 20260510131035 | 15 | 159 | 1.6 | 1.6 | 0.00 | 0.00 | 0.00 | 83 | 1014.9 |
| 20260510130531 | 15 | 313 | 0.0 | 4.8 | 0.00 | 0.00 | 0.00 | 87 | 1014.7 |
| 20260510130029 | 14 | 157 | 0.0 | 3.2 | 0.00 | 0.00 | 0.00 | 87 | 1014.9 |
| 20260510125525 | 14 | 282 | 0.0 | 3.2 | 0.00 | 0.00 | 0.00 | 88 | 1014.8 |
| 20260510125022 | 13 | 321 | 0.0 | 1.6 | 0.00 | 0.00 | 0.00 | 90 | 1014.8 |
| 20260510124518 | 13 | 129 | 0.0 | 1.6 | 0.00 | 0.00 | 0.00 | 91 | 1014.7 |
| 20260510124015 | 13 | 117 | 4.8 | 4.8 | 0.00 | 0.00 | 0.00 | 91 | 1014.7 |
| 20260510123510 | 13 | 70 | 1.6 | 3.2 | 0.00 | 0.00 | 0.00 | 91 | 1014.4 |
| 20260510123006 | 13 | 21 | 1.6 | 4.8 | 0.00 | 0.00 | 0.00 | 93 | 1014.5 |
| 20260510122502 | 12 | 303 | 3.2 | 3.2 | 0.00 | 0.00 | 0.00 | 94 | 1014.5 |
| 20260510121959 | 12 | 32 | 0.0 | 3.2 | 0.00 | 0.00 | 0.00 | 95 | 1014.5 |
| 20260510121456 | 12 | 126 | 1.6 | 3.2 | 0.00 | 0.00 | 0.00 | 95 | 1014.4 |
| 20260510120953 | 12 | 347 | 0.0 | 3.2 | 0.00 | 0.00 | 0.00 | 95 | 1014.8 |
| 20260510120450 | 12 | 139 | 3.2 | 4.8 | 0.00 | 0.00 | 0.00 | 96 | 1014.4 |
| 20260510115946 | 12 | 159 | 1.6 | 3.2 | 0.00 | 0.00 | 0.00 | 97 | 1014.3 |
| 20260510115444 | 12 | 133 | 0.0 | 3.2 | 0.00 | 0.00 | 0.00 | 97 | 1014.2 |
| 20260510114939 | 12 | 156 | 1.6 | 3.2 | 0.00 | 0.00 | 0.00 | 98 | 1014.1 |
| 20260510114436 | 12 | 78 | 3.2 | 4.8 | 0.00 | 0.00 | 0.00 | 98 | 1014.2 |
| 20260510113932 | 12 | 53 | 3.2 | 3.2 | 0.00 | 0.00 | 0.00 | 98 | 1014.2 |
| 20260510113427 | 11 | 127 | 3.2 | 4.8 | 0.00 | 0.00 | 0.00 | 98 | 1014.0 |
| 20260510112925 | 11 | 108 | 3.2 | 3.2 | 0.00 | 0.00 | 0.00 | 99 | 1014.1 |
| 20260510112422 | 11 | 127 | 0.0 | 3.2 | 0.00 | 0.00 | 0.00 | 99 | 1014.0 |
| 20260510111918 | 11 | 44 | 0.0 | 1.6 | 0.00 | 0.00 | 0.00 | 99 | 1014.0 |
| 20260510111414 | 11 | 78 | 3.2 | 4.8 | 0.00 | 0.00 | 0.00 | 99 | 1013.7 |
| 20260510110910 | 11 | 60 | 1.6 | 3.2 | 0.00 | 0.00 | 0.00 | 99 | 1013.8 |
| 20260510110407 | 11 | 76 | 0.0 | 1.6 | 0.00 | 0.00 | 0.00 | 99 | 1013.9 |
| 20260510105902 | 11 | 48 | 0.0 | 3.2 | 0.00 | 0.00 | 0.00 | 99 | 1013.6 |
| 20260510105357 | 11 | 243 | 0.0 | 3.2 | 0.00 | 0.00 | 0.00 | 99 | 1013.5 |
| 20260510104853 | 11 | 48 | 0.0 | 3.2 | 0.00 | 0.00 | 0.00 | 99 | 1013.4 |
| 20260510104350 | 11 | 101 | 0.0 | 3.2 | 0.00 | 0.00 | 0.00 | 99 | 1013.5 |
| 20260510103846 | 11 | 116 | 0.0 | 1.6 | 0.00 | 0.00 | 0.00 | 99 | 1013.4 |
| 20260510103344 | 11 | 122 | 0.0 | 4.8 | 0.00 | 0.00 | 0.00 | 99 | 1013.3 |
| 20260510102839 | 11 | 166 | 1.6 | 4.8 | 0.00 | 0.00 | 0.00 | 99 | 1013.3 |
| 20260510102335 | 11 | 69 | 0.0 | 3.2 | 0.00 | 0.00 | 0.00 | 99 | 1013.1 |
| 20260510101832 | 11 | 52 | 1.6 | 4.8 | 0.00 | 0.00 | 0.00 | 99 | 1013.2 |
| 20260510101331 | 11 | 66 | 1.6 | 4.8 | 0.00 | 0.00 | 0.00 | 99 | 1013.2 |
| 20260510100826 | 11 | 132 | 0.0 | 3.2 | 0.00 | 0.00 | 0.00 | 99 | 1013.2 |
| 20260510100324 | 11 | 37 | 1.6 | 3.2 | 0.00 | 0.00 | 0.00 | 99 | 1013.3 |
| 20260510095820 | 11 | 29 | 0.0 | 3.2 | 0.00 | 0.00 | 0.00 | 99 | 1013.5 |
| 20260510095315 | 11 | 32 | 0.0 | 1.6 | 0.00 | 0.00 | 0.00 | 99 | 1013.6 |
| 20260510094809 | 11 | 290 | 0.0 | 4.8 | 0.00 | 0.00 | 0.00 | 99 | 1013.2 |
| 20260510094304 | 11 | 354 | 0.0 | 3.2 | 0.00 | 0.00 | 0.00 | 99 | 1013.0 |
| 20260510093801 | 11 | 110 | 4.8 | 6.4 | 0.00 | 0.00 | 0.00 | 99 | 1013.1 |
| 20260510093257 | 11 | 113 | 3.2 | 3.2 | 0.00 | 0.00 | 0.00 | 99 | 1012.8 |
| 20260510092753 | 11 | 27 | 0.0 | 3.2 | 0.00 | 0.00 | 0.00 | 99 | 1012.8 |
| 20260510092249 | 11 | 333 | 0.0 | 3.2 | 0.00 | 0.00 | 0.00 | 99 | 1012.8 |
| 20260510091745 | 11 | 35 | 3.2 | 3.2 | 0.00 | 0.00 | 0.00 | 99 | 1012.8 |
| 20260510091243 | 11 | 23 | 0.0 | 3.2 | 0.00 | 0.00 | 0.00 | 99 | 1012.7 |
| 20260510090739 | 11 | 29 | 0.0 | 4.8 | 0.00 | 0.00 | 0.00 | 99 | 1012.8 |
| 20260510090236 | 10 | 16 | 3.2 | 3.2 | 0.00 | 0.00 | 0.00 | 99 | 1012.8 |
| 20260510085731 | 10 | 147 | 0.0 | 0.0 | 0.00 | 0.00 | 0.00 | 99 | 1012.4 |
| 20260510085226 | 10 | 166 | 0.0 | 1.6 | 0.00 | 0.00 | 0.00 | 99 | 1012.5 |
| 20260510084722 | 10 | 134 | 1.6 | 1.6 | 0.00 | 0.00 | 0.00 | 99 | 1012.5 |
| 20260510084219 | 10 | 55 | 0.0 | 1.6 | 0.00 | 0.00 | 0.00 | 99 | 1012.3 |
| 20260510083715 | 10 | 55 | 0.0 | 1.6 | 0.00 | 0.00 | 0.00 | 99 | 1012.5 |
| 20260510083212 | 10 | 113 | 0.0 | 0.0 | 0.00 | 0.00 | 0.00 | 99 | 1012.4 |
| 20260510082708 | 10 | 126 | 0.0 | 1.6 | 0.00 | 0.00 | 0.00 | 99 | 1012.4 |
| 20260510082159 | 10 | 113 | 0.0 | 1.6 | 0.00 | 0.00 | 0.00 | 99 | 1012.3 |
| 20260510081653 | 10 | 66 | 0.0 | 1.6 | 0.00 | 0.00 | 0.00 | 99 | 1012.4 |
| 20260510081149 | 10 | 154 | 1.6 | 1.6 | 0.00 | 0.00 | 0.00 | 99 | 1012.6 |
| 20260510080649 | 10 | 65 | 0.0 | 1.6 | 0.00 | 0.00 | 0.00 | 99 | 1012.5 |
| 20260510080146 | 10 | 113 | 0.0 | 0.0 | 0.00 | 0.00 | 0.00 | 99 | 1012.3 |
| 20260510075643 | 10 | 110 | 0.0 | 3.2 | 0.00 | 0.00 | 0.00 | 99 | 1012.3 |
| 20260510075140 | 10 | 41 | 3.2 | 3.2 | 0.00 | 0.00 | 0.00 | 99 | 1012.4 |
| 20260510074637 | 10 | 53 | 0.0 | 1.6 | 0.00 | 0.00 | 0.00 | 99 | 1012.1 |
| 20260510074133 | 10 | 119 | 0.0 | 3.2 | 0.00 | 0.00 | 0.00 | 99 | 1012.0 |
| 20260510073630 | 10 | 30 | 1.6 | 3.2 | 0.00 | 0.00 | 0.00 | 99 | 1012.1 |
| 20260510073126 | 9 | 52 | 0.0 | 3.2 | 0.00 | 0.00 | 0.00 | 99 | 1011.9 |
| 20260510072622 | 9 | 57 | 0.0 | 1.6 | 0.00 | 0.00 | 0.00 | 99 | 1012.0 |
| 20260510072119 | 9 | 62 | 0.0 | 1.6 | 0.00 | 0.00 | 0.00 | 98 | 1011.6 |
| 20260510071614 | 9 | 113 | 1.6 | 1.6 | 0.00 | 0.00 | 0.00 | 99 | 1011.7 |
| 20260510071113 | 9 | 113 | 0.0 | 1.6 | 0.00 | 0.00 | 0.00 | 98 | 1011.5 |
| 20260510070609 | 9 | 79 | 0.0 | 1.6 | 0.00 | 0.00 | 0.00 | 98 | 1011.5 |
| 20260510070107 | 10 | 87 | 0.0 | 1.6 | 0.00 | 0.00 | 0.00 | 98 | 1011.6 |
| 20260510065603 | 9 | 73 | 0.0 | 1.6 | 0.00 | 0.00 | 0.00 | 98 | 1011.9 |
| 20260510065059 | 9 | 105 | 1.6 | 1.6 | 0.00 | 0.00 | 0.00 | 98 | 1011.6 |
| 20260510064555 | 10 | 132 | 0.0 | 1.6 | 0.00 | 0.00 | 0.00 | 98 | 1011.9 |
| 20260510064052 | 10 | 79 | 0.0 | 1.6 | 0.00 | 0.00 | 0.00 | 98 | 1011.8 |
| 20260510063549 | 9 | 113 | 0.0 | 1.6 | 0.00 | 0.00 | 0.00 | 98 | 1011.7 |
| 20260510063046 | 10 | 126 | 0.0 | 1.6 | 0.00 | 0.00 | 0.00 | 98 | 1011.7 |
| 20260510062542 | 10 | 140 | 0.0 | 1.6 | 0.00 | 0.00 | 0.00 | 98 | 1011.9 |
| 20260510062037 | 10 | 122 | 0.0 | 3.2 | 0.00 | 0.00 | 0.00 | 98 | 1012.0 |
| 20260510061534 | 10 | 137 | 0.0 | 1.6 | 0.00 | 0.00 | 0.00 | 98 | 1012.0 |
| 20260510061031 | 10 | 136 | 0.0 | 1.6 | 0.00 | 0.00 | 0.00 | 98 | 1011.9 |
| 20260510060527 | 10 | 113 | 0.0 | 0.0 | 0.00 | 0.00 | 0.00 | 98 | 1011.9 |
| 20260510060023 | 10 | 123 | 0.0 | 3.2 | 0.00 | 0.00 | 0.00 | 98 | 1011.9 |
| 20260510055519 | 10 | 135 | 0.0 | 0.0 | 0.00 | 0.00 | 0.00 | 98 | 1012.1 |
| 20260510055018 | 10 | 117 | 0.0 | 3.2 | 0.00 | 0.00 | 0.00 | 98 | 1011.9 |
| 20260510054513 | 10 | 150 | 1.6 | 1.6 | 0.00 | 0.00 | 0.00 | 98 | 1012.2 |
| 20260510054009 | 10 | 113 | 0.0 | 1.6 | 0.00 | 0.00 | 0.00 | 98 | 1012.1 |
| 20260510053503 | 10 | 131 | 0.0 | 1.6 | 0.00 | 0.00 | 0.00 | 98 | 1012.1 |
| 20260510053001 | 10 | 113 | 0.0 | 1.6 | 0.05 | 0.00 | 0.00 | 98 | 1012.2 |
| 20260510052456 | 10 | 145 | 0.0 | 3.2 | 0.05 | 0.00 | 0.00 | 98 | 1012.2 |
| 20260510051953 | 10 | 113 | 0.0 | 0.0 | 0.00 | 0.00 | 0.00 | 98 | 1012.3 |
| 20260510051448 | 10 | 122 | 0.0 | 1.6 | 0.00 | 0.00 | 0.00 | 98 | 1012.2 |
| 20260510050945 | 10 | 124 | 0.0 | 1.6 | 0.00 | 0.00 | 0.00 | 98 | 1012.4 |
| 20260510050442 | 10 | 132 | 0.0 | 1.6 | 0.00 | 0.00 | 0.00 | 98 | 1012.5 |
| 20260510045939 | 10 | 118 | 0.0 | 1.6 | 0.00 | 0.00 | 0.00 | 98 | 1012.4 |
| 20260510045436 | 10 | 129 | 0.0 | 1.6 | 0.00 | 0.00 | 0.00 | 98 | 1012.5 |
| 20260510044933 | 10 | 141 | 0.0 | 1.6 | 0.00 | 0.00 | 0.00 | 98 | 1012.4 |
| 20260510044430 | 10 | 119 | 1.6 | 1.6 | 0.00 | 0.00 | 0.00 | 98 | 1012.5 |
| 20260510043927 | 10 | 119 | 0.0 | 0.0 | 0.00 | 0.00 | 0.00 | 98 | 1012.5 |
| 20260510043422 | 10 | 135 | 0.0 | 1.6 | 0.00 | 0.00 | 0.00 | 98 | 1012.5 |
| 20260510042921 | 10 | 124 | 0.0 | 1.6 | 0.00 | 0.00 | 0.00 | 98 | 1012.5 |
| 20260510042416 | 10 | 76 | 0.0 | 1.6 | 0.00 | 0.00 | 0.00 | 97 | 1012.5 |
| 20260510041912 | 11 | 126 | 1.6 | 3.2 | 0.00 | 0.00 | 0.00 | 98 | 1012.5 |
| 20260510041410 | 11 | 66 | 0.0 | 1.6 | 0.00 | 0.00 | 0.00 | 97 | 1012.6 |
| 20260510040908 | 10 | 89 | 0.0 | 1.6 | 0.00 | 0.00 | 0.00 | 97 | 1012.5 |
| 20260510040404 | 11 | 135 | 0.0 | 3.2 | 0.00 | 0.00 | 0.00 | 97 | 1012.7 |
| 20260510035859 | 11 | 136 | 0.0 | 3.2 | 0.00 | 0.05 | 0.05 | 97 | 1012.7 |
| 20260510035355 | 11 | 135 | 0.0 | 1.6 | 0.00 | 0.05 | 0.05 | 97 | 1012.7 |
| 20260510034851 | 11 | 108 | 1.6 | 1.6 | 0.00 | 0.05 | 0.05 | 97 | 1012.7 |
| 20260510034349 | 11 | 123 | 0.0 | 1.6 | 0.00 | 0.05 | 0.05 | 97 | 1012.5 |
| 20260510033845 | 11 | 95 | 0.0 | 1.6 | 0.00 | 0.05 | 0.05 | 97 | 1012.4 |
| 20260510033342 | 11 | 103 | 0.0 | 0.0 | 0.00 | 0.05 | 0.05 | 97 | 1012.4 |
| 20260510032839 | 11 | 154 | 0.0 | 3.2 | 0.00 | 0.05 | 0.05 | 97 | 1012.2 |
| 20260510032336 | 11 | 141 | 0.0 | 1.6 | 0.00 | 0.05 | 0.05 | 97 | 1012.2 |
| 20260510031831 | 11 | 147 | 0.0 | 0.0 | 0.00 | 0.05 | 0.05 | 97 | 1012.3 |
| 20260510031326 | 11 | 103 | 0.0 | 1.6 | 0.00 | 0.05 | 0.05 | 97 | 1012.1 |
| 20260510030821 | 11 | 150 | 0.0 | 3.2 | 0.00 | 0.05 | 0.05 | 97 | 1012.0 |
| 20260510030318 | 11 | 120 | 0.0 | 1.6 | 0.00 | 0.05 | 0.05 | 97 | 1012.0 |
| 20260510025815 | 11 | 89 | 0.0 | 1.6 | 0.00 | 0.05 | 0.05 | 97 | 1012.0 |
| 20260510025312 | 11 | 109 | 1.6 | 1.6 | 0.00 | 0.05 | 0.05 | 97 | 1012.0 |
| 20260510024809 | 11 | 135 | 0.0 | 3.2 | 0.00 | 0.05 | 0.05 | 97 | 1012.0 |
| 20260510024306 | 11 | 79 | 0.0 | 1.6 | 0.00 | 0.05 | 0.05 | 97 | 1012.1 |
| 20260510023802 | 11 | 135 | 0.0 | 1.6 | 0.00 | 0.05 | 0.05 | 96 | 1012.3 |
| 20260510023259 | 11 | 146 | 1.6 | 1.6 | 0.00 | 0.05 | 0.05 | 96 | 1012.1 |
| 20260510022755 | 11 | 103 | 0.0 | 1.6 | 0.00 | 0.05 | 0.05 | 96 | 1012.0 |
| 20260510022250 | 11 | 122 | 1.6 | 1.6 | 0.00 | 0.05 | 0.05 | 96 | 1012.0 |
| 20260510021749 | 11 | 113 | 0.0 | 1.6 | 0.00 | 0.05 | 0.05 | 96 | 1012.1 |
| 20260510021247 | 12 | 130 | 0.0 | 1.6 | 0.00 | 0.05 | 0.05 | 96 | 1012.2 |
| 20260510020743 | 11 | 114 | 1.6 | 3.2 | 0.00 | 0.05 | 0.05 | 96 | 1012.1 |
| 20260510020243 | 12 | 153 | 1.6 | 1.6 | 0.00 | 0.05 | 0.05 | 96 | 1012.0 |
| 20260510015739 | 12 | 134 | 1.6 | 1.6 | 0.00 | 0.05 | 0.05 | 96 | 1012.1 |
| 20260510015236 | 12 | 140 | 0.0 | 1.6 | 0.00 | 0.05 | 0.05 | 96 | 1012.0 |
| 20260510014730 | 12 | 105 | 1.6 | 1.6 | 0.00 | 0.05 | 0.05 | 96 | 1012.0 |
| 20260510014228 | 12 | 130 | 1.6 | 3.2 | 0.00 | 0.05 | 0.05 | 95 | 1011.8 |
| 20260510013724 | 12 | 122 | 1.6 | 1.6 | 0.00 | 0.05 | 0.05 | 95 | 1011.8 |
| 20260510013220 | 12 | 150 | 0.0 | 3.2 | 0.00 | 0.05 | 0.05 | 95 | 1011.9 |
| 20260510012719 | 12 | 103 | 0.0 | 1.6 | 0.00 | 0.05 | 0.05 | 95 | 1011.9 |
| 20260510012215 | 12 | 124 | 1.6 | 1.6 | 0.00 | 0.05 | 0.05 | 95 | 1012.0 |
| 20260510011709 | 12 | 135 | 1.6 | 3.2 | 0.00 | 0.05 | 0.05 | 95 | 1011.8 |
| 20260510011205 | 12 | 93 | 0.0 | 1.6 | 0.00 | 0.05 | 0.05 | 94 | 1011.9 |
| 20260510010702 | 12 | 116 | 0.0 | 1.6 | 0.00 | 0.05 | 0.05 | 94 | 1011.7 |
| 20260510010159 | 12 | 128 | 0.0 | 1.6 | 0.00 | 0.05 | 0.05 | 94 | 1011.5 |
| 20260510005655 | 12 | 133 | 0.0 | 3.2 | 0.00 | 0.05 | 0.05 | 94 | 1011.6 |
| 20260510005152 | 12 | 130 | 0.0 | 1.6 | 0.00 | 0.05 | 0.05 | 93 | 1011.8 |
| 20260510004650 | 12 | 89 | 0.0 | 1.6 | 0.00 | 0.05 | 0.05 | 93 | 1011.7 |
| 20260510004148 | 12 | 82 | 0.0 | 1.6 | 0.00 | 0.05 | 0.05 | 93 | 1011.6 |
| 20260510003645 | 12 | 87 | 0.0 | 0.0 | 0.00 | 0.05 | 0.05 | 93 | 1011.9 |
| 20260510003140 | 12 | 81 | 0.0 | 1.6 | 0.00 | 0.05 | 0.05 | 92 | 1011.8 |
| 20260510002640 | 13 | 120 | 0.0 | 3.2 | 0.00 | 0.05 | 0.05 | 92 | 1011.7 |
| 20260510002138 | 13 | 124 | 1.6 | 3.2 | 0.00 | 0.05 | 0.05 | 91 | 1011.5 |
| 20260510001634 | 13 | 129 | 0.0 | 1.6 | 0.00 | 0.05 | 0.05 | 90 | 1011.6 |
| 20260510001133 | 13 | 139 | 0.0 | 1.6 | 0.00 | 0.05 | 0.05 | 90 | 1011.5 |
| 20260510000633 | 13 | 126 | 0.0 | 3.2 | 0.00 | 0.05 | 0.05 | 90 | 1011.7 |
| 20260510000131 | 13 | 110 | 0.0 | 0.0 | 0.00 | 0.05 | 0.05 | 89 | 1011.7 |
| 20260509235627 | 13 | 143 | 1.6 | 1.6 | 0.00 | 0.05 | 0.05 | 89 | 1011.5 |
| 20260509235124 | 14 | 132 | 0.0 | 3.2 | 0.00 | 0.05 | 0.05 | 88 | 1011.8 |
| 20260509234620 | 14 | 113 | 0.0 | 1.6 | 0.00 | 0.05 | 0.05 | 87 | 1011.7 |
| 20260509234118 | 14 | 129 | 0.0 | 0.0 | 0.00 | 0.05 | 0.05 | 87 | 1011.7 |
| 20260509233615 | 14 | 129 | 0.0 | 1.6 | 0.00 | 0.05 | 0.05 | 86 | 1011.5 |
| 20260509233112 | 15 | 130 | 0.0 | 1.6 | 0.00 | 0.05 | 0.05 | 85 | 1011.3 |
| 20260509232608 | 15 | 69 | 0.0 | 1.6 | 0.00 | 0.05 | 0.05 | 85 | 1011.5 |
| 20260509232106 | 15 | 245 | 0.0 | 1.6 | 0.00 | 0.05 | 0.05 | 85 | 1011.3 |
| 20260509231602 | 15 | 50 | 0.0 | 1.6 | 0.00 | 0.05 | 0.05 | 85 | 1011.1 |
| 20260509231100 | 15 | 135 | 0.0 | 3.2 | 0.00 | 0.05 | 0.05 | 85 | 1011.3 |
| 20260509230556 | 15 | 113 | 0.0 | 4.8 | 0.00 | 0.05 | 0.05 | 85 | 1011.0 |
| 20260509230054 | 15 | 107 | 1.6 | 1.6 | 0.00 | 0.05 | 0.05 | 87 | 1011.2 |
| 20260509225549 | 15 | 140 | 0.0 | 3.2 | 0.00 | 0.05 | 0.05 | 86 | 1011.4 |
| 20260509225044 | 15 | 150 | 3.2 | 3.2 | 0.00 | 0.05 | 0.05 | 86 | 1011.5 |
| 20260509224540 | 15 | 155 | 0.0 | 3.2 | 0.00 | 0.05 | 0.05 | 85 | 1011.5 |
| 20260509224037 | 15 | 115 | 1.6 | 4.8 | 0.00 | 0.05 | 0.05 | 86 | 1011.5 |
| 20260509223534 | 15 | 130 | 1.6 | 1.6 | 0.00 | 0.05 | 0.05 | 86 | 1011.4 |
| 20260509223032 | 15 | 100 | 3.2 | 3.2 | 0.00 | 0.05 | 0.05 | 86 | 1011.5 |
| 20260509222528 | 15 | 150 | 0.0 | 3.2 | 0.00 | 0.05 | 0.05 | 86 | 1011.4 |
| 20260509222024 | 15 | 145 | 0.0 | 1.6 | 0.00 | 0.05 | 0.05 | 86 | 1011.4 |
| 20260509221520 | 15 | 66 | 0.0 | 3.2 | 0.00 | 0.05 | 0.05 | 86 | 1011.5 |
| 20260509221016 | 15 | 113 | 0.0 | 3.2 | 0.00 | 0.05 | 0.05 | 86 | 1011.3 |
| 20260509220512 | 15 | 135 | 0.0 | 3.2 | 0.00 | 0.05 | 0.05 | 86 | 1011.3 |
| 20260509220009 | 15 | 120 | 1.6 | 3.2 | 0.00 | 0.05 | 0.05 | 84 | 1011.6 |
| 20260509215504 | 15 | 89 | 1.6 | 3.2 | 0.05 | 0.05 | 0.05 | 82 | 1011.7 |
| 20260509215001 | 15 | 73 | 3.2 | 4.8 | 0.13 | 0.05 | 0.05 | 79 | 1011.8 |
| 20260509214458 | 15 | 39 | 3.2 | 4.8 | 0.05 | 0.05 | 0.05 | 76 | 1011.8 |
| 20260509213955 | 16 | 164 | 0.0 | 6.4 | 0.00 | 0.03 | 0.03 | 75 | 1011.7 |
| 20260509213451 | 16 | 63 | 4.8 | 4.8 | 0.05 | 0.03 | 0.03 | 73 | 1011.4 |
| 20260509212948 | 16 | 109 | 1.6 | 4.8 | 0.05 | 0.03 | 0.03 | 72 | 1011.6 |
| 20260509212446 | 16 | 45 | 1.6 | 4.8 | 0.00 | 0.03 | 0.03 | 70 | 1011.7 |
| 20260509211942 | 16 | 96 | 0.0 | 3.2 | 0.00 | 0.03 | 0.03 | 68 | 1011.8 |
| 20260509211437 | 16 | 66 | 1.6 | 4.8 | 0.00 | 0.03 | 0.03 | 68 | 1012.1 |
| 20260509210934 | 17 | 15 | 3.2 | 3.2 | 0.00 | 0.03 | 0.03 | 67 | 1011.8 |
| 20260509210431 | 17 | 14 | 0.0 | 4.8 | 0.00 | 0.03 | 0.03 | 66 | 1011.8 |
| 20260509205926 | 17 | 338 | 1.6 | 4.8 | 0.00 | 0.03 | 0.03 | 65 | 1011.5 |
| 20260509205421 | 17 | 353 | 0.0 | 8.0 | 0.00 | 0.03 | 0.03 | 67 | 1011.4 |
| 20260509204917 | 17 | 352 | 1.6 | 6.4 | 0.00 | 0.03 | 0.03 | 65 | 1011.7 |